Temp
2 2 2 1 1 1 1 1 1 1 1 1 1 1 0 0 1 1 1 1 1 1 1 1 1 1 1 1 1 0 0 -0 -0 -1 -1 -1 -1 -1 -2 -2 -2 -2 -3 -3 -3 -4 -4 -4 -5 -5 -5 -5 -5 -5 -5 -5 -5 -6 -6 -6 -6 -6 -6 -6 -6 -7 -7 -7 -7
2 2 1 1 1 1 1 1 0 0 0 0 1 1 0 0 1 1 1 1 1 1 1 1 1 1 1 1 1 1 1 0 -0 -0 -1 -1 -1 -1 -2 -2 -2 -2 -3 -3 -3 -4 -4 -4 -5 -5 -5 -5 -5 -5 -5 -5 -5 -5 -6 -6 -6 -6 -6 -7 -7 -7 -7 -7 -7
2 1 1 1 1 1 1 0 0 0 0 0 0 0 0 0 0 1 1 1 1 1 1 1 1 1 1 1 1 1 1 0 0 -0 -1 -1 -1 -1 -2 -2 -2 -2 -3 -3 -3 -4 -4 -4 -5 -5 -5 -5 -5 -5 -5 -5 -5 -5 -6 -6 -6 -6 -7 -7 -7 -7 -7 -8 -8
2 1 1 1 1 1 1 0 0 0 -0 -0 -0 -0 -0 0 0 0 1 1 1 1 1 1 1 1 1 1 1 1 1 0 0 -0 -1 -1 -1 -1 -1 -2 -2 -2 -3 -3 -4 -4 -4 -4 -5 -5 -5 -5 -5 -5 -5 -5 -5 -5 -6 -6 -6 -6 -7 -7 -7 -7 -7 -8 -8
2 1 1 1 1 1 1 0 0 -0 -0 -0 -0 -0 -0 -0 -0 -0 0 0 0 1 1 1 1 1 1 1 1 1 1 0 -0 -1 -1 -1 -1 -1 -1 -2 -2 -2 -3 -3 -4 -4 -4 -4 -5 -5 -5 -5 -5 -5 -5 -5 -5 -6 -6 -6 -6 -7 -7 -7 -7 -7 -7 -8 -8
1 1 1 1 1 1 0 0 0 -0 -0 -0 -1 -1 -1 -1 -1 -0 -0 0 0 1 1 1 1 1 1 1 1 1 0 -0 -1 -1 -1 -1 -1 -1 -2 -2 -2 -3 -3 -4 -4 -4 -4 -4 -5 -5 -5 -5 -5 -5 -5 -5 -5 -6 -6 -6 -6 -7 -7 -7 -7 -7 -7 -7 -8
1 1 1 1 0 0 0 0 -0 -0 -0 -1 -1 -1 -1 -1 -1 -0 -0 0 0 0 0 0 0 0 0 0 0 0 -0 -0 -1 -1 -1 -1 -1 -2 -2 -2 -2 -3 -3 -4 -4 -4 -4 -5 -5 -5 -5 -5 -5 -5 -5 -5 -6 -6 -6 -6 -6 -7 -7 -7 -7 -7 -7 -7 -8
1 1 1 1 0 0 0 -0 -0 -1 -1 -1 -1 -1 -1 -1 -1 -0 -0 -0 -0 -0 0 0 0 0 0 0 0 0 -0 -0 -1 -1 -1 -1 -1 -2 -2 -2 -2 -3 -3 -4 -4 -4 -4 -5 -5 -5 -5 -5 -6 -6 -6 -6 -6 -6 -6 -6 -6 -7 -7 -7 -7 -7 -7 -7 -8
1 1 1 1 0 0 -0 -0 -0 -1 -1 -1 -1 -1 -1 -1 -1 -1 -1 -1 -0 -0 0 0 0 0 0 0 0 0 -0 -0 -1 -1 -1 -1 -1 -1 -2 -2 -2 -3 -3 -4 -4 -4 -4 -5 -5 -5 -5 -5 -6 -6 -6 -6 -6 -6 -6 -6 -6 -7 -7 -7 -7 -7 -7 -7 -8
2 1 1 0 0 0 -0 -0 -1 -1 -1 -1 -1 -1 -1 -1 -1 -1 -1 -1 -1 -0 -0 -0 -0 -0 -0 -0 -0 -0 -0 -0 -1 -1 -1 -1 -1 -1 -1 -2 -2 -3 -3 -4 -4 -4 -4 -4 -5 -5 -5 -5 -5 -6 -6 -6 -6 -6 -6 -6 -7 -7 -7 -7 -7 -7 -7 -7 -7
2 1 1 0 0 -0 -1 -1 -1 -1 -1 -1 -1 -1 -1 -1 -1 -1 -1 -1 -1 -1 -1 -0 -0 -0 -0 -0 -0 -0 -0 -0 -1 -1 -1 -1 -1 -1 -1 -1 -2 -3 -3 -3 -4 -4 -4 -4 -5 -5 -5 -5 -5 -6 -6 -6 -6 -6 -6 -6 -6 -7 -7 -7 -7 -7 -7 -7 -7
2 1 1 0 0 -0 -1 -1 -1 -1 -1 -1 -1 -1 -2 -2 -1 -1 -1 -1 -1 -1 -1 -1 -0 -0 -0 -0 -0 -0 -0 -0 -1 -1 -1 -1 -1 -1 -1 -1 -2 -2 -3 -3 -4 -4 -4 -4 -4 -5 -5 -5 -5 -6 -6 -6 -6 -6 -6 -6 -6 -7 -7 -7 -7 -7 -7 -7 -7
2 1 1 0 -0 -0 -1 -1 -1 -1 -1 -2 -2 -2 -2 -2 -2 -2 -2 -2 -2 -1 -1 -1 -1 -0 -0 -0 -0 -0 -0 -0 -1 -1 -1 -1 -1 -1 -1 -2 -2 -3 -3 -3 -3 -4 -4 -4 -4 -5 -5 -5 -5 -5 -6 -6 -6 -6 -6 -6 -6 -7 -7 -6 -6 -7 -7 -7 -7
2 1 1 0 -0 -0 -1 -1 -1 -1 -2 -2 -2 -2 -2 -2 -2 -2 -2 -2 -2 -2 -1 -1 -1 -1 -0 -0 -0 -0 -0 -0 -0 -1 -1 -1 -1 -1 -1 -2 -2 -3 -3 -3 -3 -4 -4 -4 -4 -4 -5 -5 -5 -5 -6 -6 -6 -6 -6 -6 -6 -6 -6 -6 -6 -6 -7 -7 -7
1 1 1 0 -0 -0 -1 -1 -1 -2 -2 -2 -2 -2 -2 -2 -2 -2 -2 -2 -2 -2 -2 -2 -1 -1 -1 -0 -0 -0 -0 -0 -0 -1 -1 -1 -1 -1 -1 -2 -2 -2 -3 -3 -3 -3 -3 -4 -4 -4 -5 -5 -5 -5 -6 -6 -6 -6 -6 -6 -6 -6 -6 -6 -6 -6 -7 -7 -7
1 1 1 0 -0 -0 -1 -1 -1 -2 -2 -2 -2 -2 -2 -3 -3 -3 -3 -3 -2 -2 -2 -2 -2 -1 -1 -1 -1 -1 -1 -0 -1 -1 -1 -1 -1 -1 -1 -2 -2 -2 -2 -3 -3 -3 -3 -4 -4 -4 -5 -5 -5 -5 -6 -6 -6 -6 -6 -6 -6 -6 -6 -6 -6 -6 -6 -7 -7
1 1 1 0 -0 -0 -1 -1 -1 -2 -2 -2 -2 -2 -3 -3 -3 -3 -3 -3 -3 -3 -3 -2 -2 -2 -2 -2 -1 -1 -1 -1 -1 -1 -1 -1 -1 -1 -1 -1 -2 -2 -2 -2 -3 -3 -3 -4 -4 -5 -5 -5 -5 -5 -6 -6 -6 -6 -6 -6 -6 -6 -6 -6 -6 -6 -6 -6 -7
1 1 1 0 -0 -0 -1 -1 -1 -1 -2 -2 -2 -2 -3 -3 -3 -3 -3 -3 -3 -3 -3 -3 -2 -2 -2 -2 -2 -1 -1 -1 -1 -1 -1 -1 -1 -1 -1 -1 -1 -2 -2 -2 -2 -3 -3 -4 -4 -5 -5 -5 -5 -5 -6 -6 -6 -6 -6 -6 -6 -6 -5 -6 -6 -6 -6 -6 -6
1 1 0 0 -0 -0 -1 -1 -1 -1 -2 -2 -2 -2 -3 -3 -3 -3 -3 -3 -3 -3 -3 -3 -3 -2 -2 -2 -1 -1 -1 -1 -1 -1 -0 -0 -1 -1 -1 -1 -1 -2 -2 -2 -2 -3 -3 -4 -4 -5 -5 -5 -5 -5 -6 -6 -6 -6 -6 -6 -6 -5 -5 -5 -5 -5 -5 -5 -5
1 1 1 0 0 -0 -1 -1 -1 -1 -2 -2 -2 -2 -3 -3 -3 -3 -3 -3 -3 -3 -3 -3 -3 -3 -2 -2 -1 -1 -1 -1 -1 -0 -0 -1 -1 -1 -1 -1 -2 -2 -2 -2 -2 -3 -3 -4 -4 -5 -5 -5 -5 -5 -6 -6 -6 -6 -6 -5 -5 -5 -5 -5 -5 -5 -5 -5 -5
1 1 1 1 0 -0 -0 -1 -1 -1 -2 -2 -2 -2 -3 -3 -3 -3 -3 -3 -3 -4 -4 -3 -3 -3 -2 -2 -1 -1 -1 -1 -1 -1 -1 -1 -1 -1 -1 -1 -2 -2 -2 -2 -3 -3 -4 -4 -5 -5 -5 -5 -5 -5 -5 -6 -6 -5 -5 -5 -5 -5 -5 -5 -5 -5 -5 -5 -5
2 1 1 1 0 0 -0 -1 -1 -1 -2 -2 -2 -3 -3 -3 -3 -3 -3 -3 -4 -4 -4 -4 -3 -3 -2 -2 -1 -1 -1 -1 -1 -1 -1 -1 -1 -1 -1 -2 -2 -2 -2 -2 -3 -3 -4 -4 -5 -5 -5 -5 -5 -5 -5 -5 -5 -5 -5 -5 -5 -5 -5 -5 -5 -5 -5 -4 -4
2 1 1 1 0 0 -0 -1 -1 -2 -2 -2 -2 -3 -3 -3 -3 -4 -4 -4 -4 -4 -4 -4 -4 -3 -3 -2 -1 -1 -1 -1 -1 -1 -1 -2 -2 -2 -2 -2 -2 -3 -3 -3 -3 -3 -4 -4 -5 -5 -5 -5 -5 -5 -5 -5 -5 -5 -5 -5 -5 -5 -5 -5 -4 -4 -4 -4 -4
1 1 1 0 0 -0 -0 -1 -1 -2 -2 -2 -3 -3 -3 -3 -4 -4 -4 -4 -4 -4 -4 -4 -4 -3 -3 -2 -2 -2 -1 -1 -2 -2 -2 -2 -2 -2 -2 -3 -3 -3 -3 -3 -3 -3 -4 -4 -4 -5 -5 -5 -5 -5 -5 -5 -5 -5 -5 -5 -5 -5 -5 -4 -4 -4 -4 -4 -4
1 1 0 0 -0 -0 -1 -1 -1 -2 -2 -3 -3 -3 -3 -4 -4 -4 -4 -4 -4 -4 -4 -4 -4 -4 -4 -3 -3 -2 -2 -2 -2 -2 -2 -2 -2 -3 -3 -3 -3 -3 -3 -3 -3 -4 -4 -4 -4 -4 -5 -5 -5 -5 -5 -5 -5 -5 -5 -5 -5 -4 -4 -4 -4 -4 -4 -4 -4
1 1 0 0 -0 -1 -1 -1 -2 -2 -3 -3 -3 -4 -4 -4 -4 -4 -4 -5 -5 -4 -4 -4 -4 -4 -4 -4 -4 -3 -3 -2 -2 -2 -2 -2 -3 -3 -3 -3 -3 -3 -3 -3 -3 -4 -4 -5 -5 -5 -5 -5 -5 -5 -5 -5 -5 -5 -5 -5 -4 -5 -5 -5 -5 -5 -5 -4 -4
1 1 0 0 -0 -1 -1 -2 -2 -3 -3 -3 -4 -4 -4 -4 -4 -4 -5 -5 -5 -5 -5 -5 -4 -5 -5 -4 -4 -4 -3 -3 -3 -3 -2 -2 -3 -3 -3 -3 -3 -3 -3 -3 -3 -4 -5 -5 -5 -5 -5 -5 -5 -5 -5 -5 -5 -5 -5 -5 -5 -5 -5 -5 -5 -5 -5 -5 -5
2 1 0 -0 -1 -1 -2 -2 -3 -3 -3 -4 -4 -4 -4 -4 -4 -5 -5 -5 -5 -5 -5 -5 -5 -5 -5 -5 -5 -4 -4 -3 -3 -3 -3 -3 -3 -3 -3 -3 -3 -3 -3 -3 -3 -4 -5 -5 -5 -5 -5 -5 -5 -5 -5 -5 -5 -5 -5 -5 -5 -5 -5 -5 -5 -5 -5 -4 -4
2 1 0 -1 -1 -2 -2 -3 -3 -3 -3 -4 -4 -4 -4 -4 -4 -4 -5 -5 -5 -5 -5 -5 -5 -5 -5 -5 -5 -4 -4 -4 -3 -3 -3 -3 -3 -3 -3 -3 -3 -3 -3 -3 -4 -4 -4 -4 -4 -4 -4 -4 -5 -5 -5 -5 -5 -5 -5 -5 -5 -5 -4 -4 -4 -4 -4 -4 -4
1 0 -1 -1 -2 -2 -2 -3 -3 -3 -3 -4 -4 -4 -4 -4 -4 -5 -5 -5 -5 -5 -5 -5 -6 -6 -6 -5 -5 -5 -4 -4 -4 -4 -4 -4 -4 -4 -3 -3 -3 -3 -3 -3 -4 -4 -4 -4 -4 -4 -4 -4 -4 -4 -4 -4 -4 -4 -4 -4 -4 -4 -4 -4 -4 -3 -3 -3 -4
0 -0 -1 -1 -2 -2 -3 -3 -3 -3 -3 -4 -4 -4 -4 -4 -5 -5 -5 -5 -5 -5 -5 -5 -6 -6 -5 -5 -5 -5 -4 -4 -4 -4 -4 -4 -4 -3 -3 -3 -3 -3 -3 -3 -4 -4 -4 -4 -4 -4 -3 -3 -3 -3 -3 -4 -4 -4 -4 -4 -3 -3 -3 -3 -3 -3 -3 -3 -4
0 -1 -1 -2 -2 -2 -3 -3 -3 -3 -4 -4 -4 -4 -4 -5 -5 -5 -5 -5 -5 -5 -6 -6 -6 -6 -5 -5 -5 -5 -4 -4 -4 -4 -4 -4 -3 -3 -3 -3 -3 -3 -3 -3 -4 -4 -4 -4 -4 -4 -3 -3 -3 -3 -3 -3 -3 -3 -3 -3 -3 -3 -3 -3 -3 -3 -3 -3 -4
-0 -1 -1 -2 -2 -2 -3 -3 -3 -4 -4 -4 -4 -4 -4 -5 -5 -5 -5 -5 -5 -6 -6 -6 -6 -6 -6 -5 -5 -5 -5 -4 -4 -4 -4 -3 -3 -3 -3 -3 -3 -3 -3 -3 -4 -4 -4 -4 -4 -3 -3 -3 -3 -3 -3 -3 -3 -3 -3 -3 -3 -3 -3 -3 -3 -3 -3 -4 -4
-1 -1 -2 -2 -2 -3 -3 -3 -4 -4 -4 -4 -4 -5 -5 -5 -5 -5 -5 -6 -6 -6 -6 -6 -6 -6 -5 -5 -5 -5 -5 -5 -4 -4 -4 -3 -3 -3 -4 -4 -3 -3 -3 -3 -4 -4 -4 -4 -4 -3 -3 -3 -3 -3 -3 -3 -3 -3 -3 -3 -3 -3 -3 -3 -3 -4 -4 -4 -4
-1 -1 -2 -2 -2 -3 -3 -3 -4 -4 -4 -4 -5 -5 -5 -5 -5 -5 -5 -5 -5 -6 -6 -6 -6 -5 -5 -5 -5 -5 -5 -5 -4 -4 -4 -4 -4 -4 -4 -4 -3 -3 -3 -4 -4 -4 -4 -4 -4 -3 -3 -3 -3 -3 -3 -3 -3 -3 -3 -3 -3 -3 -3 -3 -4 -4 -4 -4 -4
-0 -1 -2 -2 -3 -3 -3 -4 -4 -4 -4 -5 -5 -5 -5 -5 -5 -5 -5 -5 -5 -6 -6 -6 -6 -6 -6 -5 -5 -5 -5 -5 -5 -4 -4 -4 -4 -4 -4 -3 -3 -3 -3 -4 -4 -4 -4 -4 -3 -3 -3 -3 -3 -3 -3 -3 -3 -3 -3 -3 -3 -4 -4 -4 -4 -4 -5 -5 -5
-0 -1 -1 -2 -2 -3 -3 -4 -4 -4 -4 -4 -5 -5 -5 -5 -5 -5 -5 -5 -5 -6 -6 -6 -6 -6 -6 -6 -6 -5 -5 -5 -4 -4 -4 -4 -4 -4 -4 -3 -3 -3 -3 -4 -4 -4 -4 -4 -3 -3 -3 -3 -3 -3 -3 -3 -3 -4 -4 -4 -4 -4 -4 -4 -5 -5 -5 -5 -5
0 -1 -1 -2 -2 -3 -3 -4 -4 -4 -4 -4 -4 -4 -5 -5 -5 -5 -5 -5 -5 -5 -5 -6 -6 -6 -6 -6 -5 -5 -5 -5 -5 -4 -4 -4 -4 -3 -3 -3 -3 -3 -3 -3 -4 -4 -4 -4 -3 -3 -3 -3 -3 -3 -3 -4 -4 -4 -4 -4 -4 -4 -4 -5 -5 -5 -5 -5 -5
0 -0 -1 -2 -2 -3 -3 -4 -4 -4 -4 -4 -4 -4 -5 -5 -5 -5 -5 -5 -5 -5 -5 -5 -5 -6 -6 -5 -5 -5 -5 -5 -5 -4 -4 -4 -3 -3 -3 -3 -3 -3 -3 -3 -3 -4 -4 -4 -3 -3 -3 -3 -3 -3 -4 -4 -4 -4 -4 -4 -4 -4 -4 -5 -5 -5 -5 -5 -4
0 -0 -1 -1 -2 -2 -3 -3 -4 -4 -4 -4 -4 -4 -5 -5 -5 -5 -5 -5 -5 -5 -5 -5 -5 -5 -5 -6 -6 -5 -5 -5 -5 -5 -4 -4 -3 -3 -3 -3 -3 -3 -3 -3 -3 -4 -4 -4 -3 -3 -3 -3 -3 -3 -4 -4 -4 -4 -4 -4 -4 -4 -4 -5 -5 -5 -5 -4 -4
1 -0 -1 -1 -2 -2 -3 -3 -3 -3 -4 -4 -4 -4 -4 -5 -5 -5 -5 -5 -5 -5 -5 -5 -5 -5 -6 -5 -5 -5 -5 -5 -5 -5 -4 -4 -4 -4 -4 -4 -4 -3 -3 -3 -3 -3 -4 -4 -4 -3 -3 -3 -3 -4 -4 -4 -4 -4 -4 -4 -4 -4 -4 -4 -4 -5 -4 -4 -4
Height
767 768 768 769 770 771 771 772 773 774 775 776 777 777 779 780 781 782 783 784 786 787 789 790 792 793 795 796 797 799 801 803 805 806 807 809 810 812 813 814 816 817 818 819 820 821 822 822 823 824 824 825 825 825 826 826 827 827 827 827 827 827 827 827 827 827 827 827 827
764 764 765 767 768 768 769 770 771 772 772 773 774 775 776 777 779 780 781 782 783 785 787 788 789 791 792 794 795 797 798 800 802 804 805 807 808 809 811 812 813 814 816 817 817 818 819 820 821 822 822 822 823 823 823 824 824 825 825 825 825 825 825 825 824 824 825 825 825
760 762 763 764 765 766 766 767 767 768 770 770 772 773 774 776 777 778 779 780 781 783 785 786 787 788 790 791 793 795 796 798 800 802 803 804 806 807 808 810 811 812 813 814 815 816 817 818 819 819 820 820 820 821 821 822 822 822 822 822 823 823 823 823 822 822 822 822 822
758 759 760 761 761 762 762 763 765 766 767 769 770 772 773 774 775 776 777 778 780 782 782 783 785 786 787 789 791 792 794 796 798 799 801 802 803 805 806 807 809 810 811 812 813 814 815 816 817 817 817 818 818 818 819 819 820 820 820 820 821 821 821 821 821 821 821 820 820
755 756 756 757 758 759 761 762 763 765 766 767 769 770 771 772 773 775 776 777 778 779 780 782 783 784 786 787 789 790 792 794 796 797 799 800 801 802 804 805 806 807 808 809 810 812 812 814 814 815 815 815 816 816 817 817 818 818 818 818 818 818 818 818 818 818 818 818 818
752 753 754 755 757 758 760 761 762 763 764 766 767 767 769 770 771 772 774 775 776 777 778 780 781 782 784 785 787 788 790 792 793 795 796 797 799 800 801 802 804 805 806 807 808 809 810 811 812 812 813 813 813 814 814 815 816 816 816 816 816 816 816 816 816 816 816 816 816
751 752 753 754 755 757 758 759 760 762 762 763 764 765 766 767 768 770 771 772 774 776 777 778 779 781 782 783 785 787 788 790 791 792 794 795 796 797 799 800 801 802 803 804 806 807 808 809 809 810 810 811 811 812 812 813 813 813 813 813 813 814 814 813 813 813 813 813 813
750 751 752 752 753 755 756 757 759 760 761 761 762 762 764 765 767 768 770 771 772 773 775 776 777 778 779 781 782 784 786 787 789 790 791 792 794 795 796 797 798 800 801 802 803 804 805 806 807 807 808 808 809 809 810 810 811 811 811 811 811 811 811 811 811 811 811 811 811
749 749 750 751 752 753 754 756 757 758 759 759 760 761 762 764 765 767 768 769 770 771 772 774 775 776 777 779 780 782 783 785 786 787 789 790 791 792 793 795 796 797 798 799 801 802 803 804 804 805 805 806 806 807 807 808 808 808 809 809 809 809 809 809 809 809 808 808 808
747 747 748 749 750 751 753 754 755 756 757 758 759 760 761 762 764 765 766 767 768 769 771 771 772 774 775 777 778 779 781 782 783 785 786 787 788 790 791 792 793 794 796 797 798 799 800 801 802 802 802 803 804 804 805 806 806 806 806 806 806 806 806 806 806 806 806 806 806
745 745 746 747 748 750 752 753 754 755 756 757 757 758 759 761 762 762 764 765 767 767 768 769 770 772 773 774 775 777 778 780 781 782 783 785 786 787 788 789 790 791 793 794 796 797 798 798 799 799 800 800 801 802 803 803 804 804 804 804 804 804 804 803 804 804 804 803 803
744 745 745 746 747 749 750 751 752 753 754 755 755 756 757 758 759 760 762 763 764 765 765 767 768 769 770 772 773 774 776 777 778 780 781 782 783 784 785 786 787 789 790 792 793 794 795 796 796 797 797 798 799 800 800 801 801 802 801 801 801 801 801 801 801 802 802 801 801
743 744 744 745 746 747 748 749 750 751 751 752 753 754 755 756 757 758 759 760 761 762 763 764 766 767 768 769 770 772 773 774 776 777 779 780 781 782 783 784 785 787 788 789 791 792 792 793 793 794 794 795 796 797 798 798 799 799 799 799 799 799 798 798 798 799 799 799 798
742 742 743 743 744 745 746 746 747 748 748 749 750 751 752 753 754 755 756 757 758 759 761 762 763 764 765 766 767 769 770 772 773 775 776 777 778 779 781 782 783 784 786 787 788 789 790 790 791 791 792 793 794 795 795 796 796 797 797 797 796 796 796 796 796 797 797 797 796
739 740 740 740 741 742 742 743 744 745 745 746 747 748 749 750 751 752 753 754 755 756 757 759 760 761 762 763 765 766 768 770 771 772 774 775 776 777 778 779 781 782 783 784 785 786 787 787 788 789 790 791 792 792 793 794 794 794 794 794 794 793 793 793 794 794 794 794 793
736 736 736 737 737 738 739 740 741 742 742 743 744 745 746 747 748 749 750 751 752 753 755 755 757 758 759 761 762 764 766 767 769 770 772 772 773 775 776 777 778 779 781 782 783 783 784 785 786 787 787 788 789 790 791 791 792 792 791 791 791 791 791 791 792 792 792 792 791
732 732 733 733 734 734 735 736 737 738 739 740 741 742 743 744 745 746 747 748 749 750 751 752 754 755 757 758 760 762 763 765 767 768 769 770 771 772 773 774 776 777 778 779 780 781 782 782 783 784 786 787 787 788 788 789 789 789 789 789 789 789 789 789 789 789 789 789 789
729 730 730 731 731 732 732 733 734 735 736 737 738 739 740 741 742 743 744 745 746 747 748 750 751 753 754 756 757 759 761 762 764 765 767 767 768 769 771 772 773 775 776 777 777 778 779 780 781 782 783 784 785 786 786 786 787 787 787 787 786 786 787 787 787 787 787 787 786
727 727 728 728 728 729 730 731 732 732 733 735 736 737 737 738 739 740 742 742 743 744 746 747 748 750 752 753 754 756 758 759 761 763 764 765 766 767 768 770 771 772 773 774 775 776 777 778 779 780 781 782 783 783 784 784 784 784 784 784 784 784 784 784 784 785 785 784 784
724 725 725 725 726 727 728 728 730 731 732 733 734 734 735 736 737 738 739 740 741 742 743 745 746 747 749 751 752 754 755 757 759 761 762 763 764 765 766 768 769 770 771 772 773 774 775 776 777 778 779 780 780 781 781 782 782 782 782 782 782 782 782 782 782 782 782 782 782
722 722 722 723 724 725 726 727 727 729 730 731 732 732 733 734 735 736 737 738 739 741 742 743 744 745 747 748 750 751 753 755 757 759 760 761 762 763 764 766 767 768 769 769 770 772 772 774 775 776 777 777 778 778 779 779 779 779 779 779 779 779 779 780 780 780 780 780 780
719 718 719 720 721 722 723 724 725 727 728 728 729 730 731 732 733 734 735 737 739 740 741 742 743 744 745 746 747 749 751 753 755 757 757 759 760 761 762 764 765 766 766 767 768 769 770 771 772 773 774 775 776 776 776 777 777 777 777 777 777 777 777 777 778 778 778 777 777
717 717 717 717 718 719 720 722 722 723 724 725 726 727 728 730 731 733 735 737 738 739 740 741 742 743 744 745 747 748 749 751 753 754 755 757 758 759 760 762 762 763 764 764 766 767 768 769 770 771 772 773 773 773 774 774 774 774 774 774 774 775 775 775 775 775 775 775 775
717 717 716 716 716 716 717 718 719 720 720 721 722 724 726 727 729 732 733 735 737 738 739 740 742 743 744 745 746 747 748 749 751 752 753 754 756 757 758 759 760 761 761 762 763 764 765 767 768 769 770 770 771 771 772 772 772 772 772 772 772 772 772 773 773 773 773 773 773
717 716 716 715 714 713 714 714 715 715 716 717 719 721 723 725 727 730 732 733 735 736 738 739 740 742 743 744 744 745 746 747 748 749 751 752 753 755 756 757 757 758 759 760 761 762 763 764 765 766 767 768 768 769 769 770 770 770 770 770 770 770 770 770 770 770 771 770 770
715 714 714 713 712 712 711 711 712 713 715 717 719 721 722 724 726 727 729 731 733 734 736 737 739 740 741 742 742 743 744 745 746 747 749 750 751 752 753 754 755 756 756 757 759 760 762 763 764 764 765 766 766 767 767 767 767 768 768 768 768 768 768 768 768 768 768 768 767
712 711 711 711 711 711 711 712 713 714 716 717 719 720 721 722 724 726 727 729 731 732 734 735 736 737 738 739 740 741 742 743 744 745 747 748 749 750 751 752 752 753 754 755 757 758 760 761 762 763 763 764 764 764 765 765 765 766 766 766 766 766 766 766 765 765 765 765 765
706 706 707 708 709 710 711 712 714 715 716 717 718 719 720 721 722 724 725 727 728 730 731 732 733 735 736 737 737 738 739 741 742 743 744 746 747 747 748 749 750 751 752 753 755 756 758 759 761 762 762 762 762 762 763 763 763 763 764 764 764 764 764 763 763 763 763 763 762
701 702 704 706 707 708 710 711 712 713 714 716 717 717 718 719 720 721 722 723 725 726 727 729 731 732 734 734 735 736 737 739 740 741 742 743 744 745 746 747 748 748 750 751 753 754 756 757 758 760 761 761 761 761 762 762 762 762 762 762 762 762 762 762 762 762 762 761 761
701 702 703 705 705 707 708 709 710 711 713 714 715 716 717 717 717 718 719 720 721 722 724 727 728 730 731 732 733 734 736 737 738 739 740 741 742 743 744 745 746 747 748 749 751 752 754 755 757 757 758 759 760 760 760 760 760 760 760 760 760 760 760 760 760 760 760 760 759
702 702 703 703 704 705 706 707 708 709 711 712 713 713 714 714 714 715 716 717 719 721 723 725 726 727 728 729 731 732 733 734 736 737 737 738 739 741 742 742 743 744 746 747 749 751 752 753 754 755 756 757 758 758 758 758 758 758 758 758 758 758 758 758 758 758 758 757 757
701 701 702 702 703 703 704 705 707 708 709 710 710 711 711 711 712 712 714 716 718 720 722 723 724 725 726 728 729 730 731 732 733 734 735 736 737 738 740 741 741 742 743 745 747 748 750 751 752 753 754 755 756 756 756 756 756 756 756 756 756 756 756 756 756 756 756 756 755
700 701 701 701 702 702 703 704 705 706 707 708 708 708 709 710 711 712 714 715 717 718 719 720 721 723 724 726 727 728 729 730 731 732 733 734 735 737 737 738 739 740 741 743 745 746 747 749 750 751 752 753 753 754 754 754 754 754 754 753 754 754 754 754 754 754 754 754 753
699 700 700 700 701 701 702 703 704 705 706 707 707 707 708 709 710 712 712 713 715 716 717 718 719 720 722 723 724 725 727 727 728 730 731 732 733 734 736 736 737 738 739 741 742 744 745 747 748 749 750 751 751 752 752 752 752 752 752 752 752 752 752 752 752 752 752 752 752
698 698 698 699 699 700 701 702 703 704 705 706 706 707 707 708 708 709 710 711 712 714 715 716 717 718 720 721 722 723 724 725 726 727 728 730 731 732 733 734 734 736 737 739 740 742 743 745 746 747 748 749 749 749 749 750 750 749 749 749 749 749 750 750 750 750 750 750 749
696 696 697 697 697 698 699 700 701 702 703 703 704 705 705 705 706 707 707 709 711 712 713 714 715 717 718 719 720 721 722 723 724 725 726 727 729 730 731 731 732 733 735 737 738 740 741 742 744 745 746 747 747 747 747 747 747 747 747 747 747 747 747 748 748 748 747 747 747
694 694 694 695 695 696 697 697 698 699 700 700 701 701 702 702 703 704 706 707 709 710 710 712 713 714 715 716 717 718 719 720 722 723 724 725 726 727 728 729 730 731 733 734 736 737 739 740 742 743 744 745 745 745 745 745 745 745 745 745 745 746 746 746 746 746 745 745 745
692 693 693 693 693 694 694 695 696 696 696 697 697 698 699 700 702 702 704 705 706 707 708 709 710 711 712 713 714 716 717 718 720 721 722 722 724 725 726 727 728 729 730 732 734 735 737 738 739 741 742 742 742 743 743 743 743 743 743 744 743 743 744 744 744 743 743 742 742
692 692 692 692 692 692 692 692 692 693 693 694 695 696 697 698 699 700 701 703 704 705 706 707 707 708 710 712 713 714 716 717 717 718 719 720 721 722 724 725 726 727 728 730 732 733 735 736 737 738 739 740 740 741 741 741 741 742 742 742 742 742 742 742 742 742 741 740 741
690 690 689 689 689 689 690 690 690 690 691 692 693 694 695 696 697 698 700 701 702 703 704 705 706 707 709 711 712 712 713 714 715 717 717 718 720 721 722 723 724 725 726 727 729 731 732 734 735 736 737 738 738 738 739 739 739 739 740 740 740 740 740 740 740 739 739 738 738
687 687 687 687 687 687 688 688 688 689 690 691 692 692 693 694 696 697 698 699 700 701 702 703 704 706 707 709 710 711 712 712 713 714 716 717 718 719 721 722 722 723 724 725 727 729 730 732 733 734 735 736 736 736 737 737 737 737 737 737 738 738 738 738 737 737 737 737 736
Wind_Speed
43 43 42 42 41 40 41 41 41 41 41 41 42 42 42 42 41 41 41 40 39 38 38 39 39 39 39 40 41 42 42 42 41 40 38 37 35 34 33 31 30 29 29 28 28 27 28 28 28 28 28 28 28 27 27 26 25 24 24 23 23 23 23 23 23 23 23 23 22
43 44 43 41 40 39 40 40 40 40 40 42 42 43 43 42 42 41 41 41 40 39 38 38 37 38 38 39 40 41 41 41 40 39 38 36 35 34 32 31 30 29 29 29 28 28 29 29 29 29 29 29 29 28 28 27 26 25 25 24 24 24 23 23 24 24 24 23 22
43 43 42 41 40 39 39 39 39 39 40 41 42 42 42 42 42 41 41 41 41 40 38 37 37 37 38 38 39 39 40 40 39 38 37 36 34 33 32 31 30 29 29 29 29 29 29 29 30 30 30 30 30 29 29 28 27 26 25 25 25 24 23 23 23 23 22 21 21
43 43 42 42 42 42 41 39 39 39 39 39 40 41 41 41 41 40 40 40 40 39 39 38 37 37 37 37 38 38 38 38 38 37 37 35 34 33 31 30 30 30 30 30 30 30 30 30 30 30 31 31 31 30 29 28 27 27 26 26 25 24 24 23 22 21 21 19 20
42 43 43 43 43 43 42 40 38 38 38 39 39 40 40 40 40 40 39 39 39 39 39 38 37 36 36 36 36 36 37 37 36 36 36 35 34 32 31 30 30 30 30 31 30 30 30 30 30 31 31 31 31 31 30 29 27 27 26 26 25 24 24 23 23 22 21 20 20
41 42 42 42 43 42 41 40 39 38 38 39 39 39 40 40 40 39 39 39 39 39 39 38 37 36 36 35 35 35 35 35 35 35 35 34 33 32 31 30 30 31 31 31 31 30 30 30 30 31 31 32 32 31 30 29 28 27 27 26 25 24 23 23 24 23 22 21 21
40 40 41 41 41 41 40 40 39 38 38 38 39 40 41 41 40 40 40 40 40 39 38 37 37 36 36 35 35 35 34 34 34 34 34 34 33 32 31 31 31 31 31 31 31 31 30 31 31 31 32 31 31 31 30 29 28 28 27 26 26 25 24 24 24 24 23 23 23
37 39 40 41 41 41 41 40 39 38 38 39 39 41 41 41 41 41 40 40 39 38 38 37 37 37 36 35 35 34 34 33 34 34 34 33 32 32 31 31 31 31 31 31 31 31 31 31 31 32 32 32 30 29 29 29 29 28 28 27 26 26 25 25 25 24 24 24 24
35 37 39 40 41 41 41 41 40 39 39 39 40 40 41 41 41 40 40 39 39 39 38 37 37 37 36 36 35 34 34 33 33 33 33 33 32 32 31 31 31 32 32 31 31 31 31 31 31 32 32 32 30 29 29 29 29 28 28 27 26 26 25 25 25 25 25 24 25
34 36 37 38 39 40 40 40 40 40 40 40 40 40 40 40 40 40 40 40 39 39 38 38 37 36 36 36 35 34 33 33 33 33 33 33 32 32 31 32 32 32 32 32 31 31 31 31 32 32 33 32 31 30 29 29 28 28 28 27 26 26 26 26 25 25 25 25 26
35 35 35 36 37 38 38 38 39 39 39 39 39 39 39 39 39 40 40 39 38 38 38 38 37 36 36 36 35 34 34 33 33 33 33 33 32 32 31 32 32 32 32 32 31 31 31 31 32 32 33 32 32 31 30 29 28 28 28 27 27 26 26 26 26 25 25 25 26
35 34 34 34 35 36 36 37 38 38 39 39 39 39 39 39 39 39 39 39 38 38 38 38 37 37 36 36 35 34 34 34 33 33 33 32 31 31 31 31 31 31 31 31 31 31 31 31 32 32 32 32 31 30 30 29 29 28 28 28 28 27 27 27 27 26 25 25 26
33 33 33 33 33 34 35 36 37 38 39 39 39 39 39 39 39 39 38 38 39 38 38 38 37 37 36 36 35 35 34 34 33 33 32 32 31 31 31 31 30 30 30 30 30 30 30 31 31 32 31 31 30 30 29 29 28 28 28 28 28 28 28 28 27 27 26 26 26
32 32 33 33 33 33 34 36 37 38 38 39 39 39 39 38 38 38 38 39 39 39 38 37 37 37 36 36 35 35 34 34 33 33 32 31 31 31 31 30 30 29 29 29 29 30 30 30 31 31 31 30 30 30 29 29 28 28 28 28 28 28 28 28 27 26 26 26 27
32 33 33 34 34 34 35 36 37 37 38 38 39 39 38 38 38 38 38 38 39 39 38 38 37 37 36 36 35 35 34 33 33 32 32 31 31 31 30 30 29 29 29 29 29 29 29 30 30 30 30 30 29 29 29 28 28 28 28 28 28 28 27 27 26 26 26 26 27
32 33 34 35 35 35 35 36 36 36 37 38 39 39 38 38 38 38 38 38 39 38 38 38 38 37 36 36 35 34 33 33 32 32 32 32 31 31 30 30 29 29 29 29 28 29 29 29 29 29 29 29 29 29 28 28 28 28 28 27 27 27 27 26 26 26 25 26 26
33 34 35 35 35 36 36 36 36 36 37 38 38 38 38 38 38 38 38 39 39 38 38 38 38 37 36 36 35 34 33 33 32 32 32 32 32 31 31 30 29 29 28 28 28 28 29 29 29 29 28 28 28 28 28 28 27 27 27 27 27 27 26 26 26 25 25 25 26
33 34 35 35 36 37 37 37 37 37 37 37 38 38 39 39 39 38 38 39 39 39 39 39 38 37 37 36 35 35 34 33 33 33 32 32 32 32 31 30 29 28 28 28 28 28 28 28 28 28 28 28 28 28 27 27 27 27 27 26 26 26 26 25 25 25 25 25 26
33 34 35 35 36 37 37 38 38 38 37 37 37 38 38 39 39 39 39 39 39 40 39 39 38 37 37 36 36 35 34 34 33 33 33 33 32 32 30 29 28 28 28 28 28 27 27 27 27 27 27 27 27 27 27 27 27 26 26 26 26 25 25 24 24 24 23 24 25
33 34 35 36 37 37 37 38 38 37 37 37 37 37 38 39 39 39 39 39 39 39 39 39 38 38 37 37 36 35 35 34 33 33 33 33 33 31 30 29 28 28 28 27 27 27 27 27 27 27 27 27 27 27 26 26 26 26 26 25 25 25 24 23 22 22 22 22 23
34 35 35 36 37 37 37 37 37 37 37 36 37 37 38 38 39 39 39 39 39 38 38 38 38 38 37 37 36 35 34 34 33 33 34 34 32 31 29 28 28 28 28 27 27 27 27 27 26 26 26 26 26 26 26 26 26 25 25 25 24 24 23 22 21 21 21 21 22
34 35 35 36 36 37 37 37 36 36 36 36 37 37 37 37 38 38 39 38 37 37 37 38 38 38 38 37 36 35 34 33 33 34 34 34 32 31 29 28 28 28 28 28 27 27 27 26 26 26 26 26 26 26 26 25 25 25 25 24 24 23 21 20 20 20 20 21 22
34 34 34 35 36 36 36 36 36 36 37 37 37 37 37 37 37 37 36 36 36 36 36 37 37 37 37 37 36 35 34 33 34 34 34 33 32 30 29 29 28 28 28 28 28 27 27 26 26 26 26 26 26 26 25 25 25 24 24 23 23 22 21 20 20 20 20 21 22
33 33 33 34 35 35 36 36 36 37 37 37 37 36 36 35 35 35 34 34 35 35 35 36 36 36 37 36 36 35 34 34 34 34 34 33 32 30 29 29 29 29 29 28 28 28 27 27 26 26 26 26 26 26 25 25 24 24 23 23 22 21 21 20 21 21 22 22 23
32 32 33 33 34 35 36 36 37 37 37 37 36 35 35 34 33 33 33 33 34 34 35 35 35 36 36 36 35 35 34 34 35 35 34 33 32 31 30 29 29 29 29 29 28 28 27 26 26 26 26 26 25 25 25 24 23 23 22 21 21 21 21 22 22 23 23 23 23
32 32 33 34 34 35 35 36 36 36 35 34 33 33 33 32 32 32 33 33 33 34 34 35 35 36 36 36 35 35 34 34 35 35 34 33 32 31 30 30 30 30 30 29 29 27 26 25 24 24 24 24 23 23 23 22 22 21 20 20 20 21 22 23 24 24 24 24 24
32 33 34 34 34 34 34 34 33 32 32 31 31 31 31 31 31 31 32 33 33 34 34 35 36 36 35 35 35 35 35 35 34 34 34 33 33 32 31 31 30 30 30 30 29 27 25 23 22 22 21 22 22 21 21 21 20 19 19 19 20 21 22 23 24 24 24 24 24
34 34 34 33 33 32 32 31 30 30 30 30 30 31 31 31 31 31 32 33 33 34 34 35 35 35 33 34 35 35 35 35 35 34 34 33 33 32 32 31 31 31 31 30 28 26 24 23 23 22 22 21 21 21 20 20 19 19 19 20 20 21 21 22 22 22 22 22 22
33 33 32 32 31 31 30 29 29 29 29 29 30 30 30 31 31 32 33 34 34 34 34 34 33 32 32 32 34 35 35 35 35 34 34 33 33 32 32 31 31 31 30 29 27 25 24 23 23 23 23 22 21 21 20 18 18 18 18 19 19 19 19 19 19 20 20 20 20
30 30 30 30 30 30 29 29 29 29 29 29 29 30 31 31 32 33 34 34 35 35 34 33 32 32 32 33 33 34 34 35 35 35 34 34 34 33 32 32 31 31 30 29 27 25 23 23 22 22 23 23 22 21 20 19 18 17 17 18 18 18 18 19 20 21 21 20 20
28 28 29 29 29 29 29 29 29 29 29 29 30 31 32 32 33 34 34 34 34 34 33 32 33 33 34 34 34 34 35 35 35 35 35 35 34 34 33 32 31 31 30 29 26 24 23 22 22 22 22 22 22 21 21 20 19 19 18 18 18 19 19 20 21 21 21 21 21
27 27 27 28 28 28 28 28 28 28 29 29 30 31 32 33 33 33 33 32 32 32 31 32 33 34 34 34 34 34 35 35 35 35 35 35 35 34 33 32 32 31 30 29 27 25 23 22 22 22 22 22 21 21 21 21 20 20 19 19 20 20 21 22 21 21 22 22 22
26 26 27 27 27 27 27 27 28 28 29 30 30 31 32 32 31 30 30 30 30 31 32 32 33 34 34 33 33 34 34 35 35 36 36 35 34 33 33 32 31 31 30 29 27 25 23 22 22 22 22 21 21 21 20 20 20 20 20 21 21 22 22 23 23 23 23 23 23
25 26 26 26 27 26 26 26 27 28 28 29 30 30 30 30 29 29 29 30 30 31 32 33 33 34 35 35 35 34 34 34 35 35 35 34 33 33 32 32 31 31 30 29 27 25 23 22 22 22 21 21 20 20 19 19 20 21 21 22 22 23 23 23 23 23 23 24 24
25 25 26 26 26 26 26 26 26 27 28 28 28 29 29 29 29 30 31 31 30 30 31 32 33 34 34 35 35 35 35 34 34 35 35 34 33 32 32 32 31 30 29 28 26 25 23 22 22 21 21 20 20 19 19 19 20 21 22 22 22 23 23 23 23 23 24 24 25
26 26 26 25 25 26 26 26 26 27 27 28 28 29 29 30 31 32 32 31 29 29 29 30 31 31 32 33 33 34 34 34 34 34 34 34 33 32 32 32 31 30 29 27 26 24 23 22 22 21 21 20 19 18 18 19 20 21 21 22 23 23 23 22 22 23 24 24 24
26 26 26 25 25 25 26 26 27 27 28 29 30 30 31 31 31 31 30 29 28 28 28 29 29 30 31 32 32 33 33 34 34 34 33 33 33 32 32 32 31 30 29 27 25 23 22 21 21 21 20 19 18 18 18 19 19 20 20 21 21 22 21 20 20 21 22 23 23
25 25 25 25 25 26 26 27 27 28 29 30 31 31 31 30 29 29 29 28 28 28 28 28 29 30 31 32 32 32 33 34 33 33 33 33 33 32 31 31 31 30 29 27 25 23 22 21 21 21 20 19 18 18 18 18 18 19 19 19 18 19 19 18 18 19 21 21 21
25 25 25 26 26 26 27 27 29 30 30 30 30 30 29 29 28 29 29 28 28 28 28 28 29 30 31 31 30 31 32 33 33 33 33 33 33 32 31 30 30 30 29 28 26 24 22 22 21 21 20 19 19 18 18 17 17 18 18 17 17 17 17 17 17 18 19 20 20
24 25 25 26 27 27 27 28 29 30 30 30 29 29 29 28 28 28 28 27 27 28 28 28 29 29 29 29 29 30 31 33 33 33 33 32 32 31 30 30 30 29 28 27 26 24 23 22 21 21 21 19 19 19 19 18 17 17 17 16 16 15 15 15 16 17 19 20 20
24 25 26 27 27 28 28 28 29 29 29 29 29 29 28 28 27 26 26 26 26 26 26 27 28 28 28 27 28 29 30 32 33 33 33 32 31 30 29 28 28 28 28 26 25 23 22 22 22 21 21 19 20 20 19 19 17 16 16 16 16 15 14 14 15 17 19 20 20
Wind_Direction
223 223 223 223 223 222 222 223 223 223 222 222 221 221 220 219 218 219 219 219 219 219 220 221 222 223 223 223 223 223 223 223 224 225 226 228 230 231 232 233 234 234 234 234 234 234 234 235 235 237 239 241 243 245 247 249 251 253 255 257 259 262 265 267 269 270 270 269 267
223 223 223 223 223 223 223 224 223 223 223 223 223 222 221 220 220 220 220 220 220 221 221 222 223 223 223 224 225 225 224 223 223 224 225 227 229 231 232 232 233 233 234 234 233 233 233 234 235 236 238 241 243 245 247 249 252 253 255 257 259 261 264 266 268 270 270 269 268
223 223 223 223 223 223 223 223 223 223 223 223 223 223 222 222 221 221 221 222 222 222 221 221 222 223 224 225 226 226 225 224 224 224 224 226 228 230 231 231 232 232 233 233 233 233 233 234 235 237 239 241 243 245 247 250 252 254 255 257 259 260 261 263 266 268 269 268 267
223 223 223 222 223 222 223 223 223 223 223 223 223 222 222 222 222 222 222 223 222 222 221 222 222 224 225 225 226 226 225 225 224 224 224 225 227 228 229 230 230 231 231 232 232 232 233 234 236 237 239 241 244 246 248 251 253 254 256 257 259 260 261 262 263 265 266 265 265
223 223 223 223 224 224 224 224 224 224 223 223 223 222 222 222 222 222 222 222 222 222 223 223 223 224 225 226 226 226 225 224 224 223 223 224 226 227 228 228 229 230 230 231 231 232 233 234 236 238 240 242 244 247 249 251 253 255 256 258 258 259 260 262 264 264 265 265 265
224 224 224 225 225 225 225 225 225 225 224 224 223 222 222 222 222 221 222 222 223 224 224 224 224 224 225 225 226 225 225 223 222 222 222 223 224 225 226 227 228 229 229 230 231 232 233 234 236 238 241 243 245 247 250 251 253 254 256 257 257 258 259 261 263 265 265 265 265
226 226 225 225 225 225 225 225 225 225 225 225 224 223 223 223 222 222 222 223 224 223 223 222 222 223 223 224 224 224 224 222 221 220 220 221 222 223 225 226 227 228 228 229 230 231 232 234 235 238 240 243 245 247 249 250 251 253 254 255 257 258 259 261 264 265 266 266 266
229 228 227 227 226 226 225 225 225 225 225 225 225 225 225 224 224 223 223 223 223 222 222 222 222 223 223 224 224 223 222 221 219 218 218 219 220 222 223 225 226 227 227 228 229 230 231 233 235 238 240 242 243 245 248 249 250 252 253 255 257 259 260 261 264 265 266 266 267
229 230 229 228 228 227 226 226 225 225 225 226 226 226 226 226 225 224 224 223 223 223 223 222 223 223 224 224 224 223 221 219 217 216 216 217 219 220 222 224 225 225 226 227 228 229 231 233 235 238 240 241 242 244 247 249 251 252 254 256 258 259 261 262 264 265 267 267 267
229 230 229 229 228 228 227 226 226 226 227 227 228 228 227 227 226 225 225 224 224 224 223 223 222 222 222 223 223 222 221 218 216 215 215 216 218 220 222 223 224 224 225 226 227 229 230 233 235 238 240 242 243 244 247 249 251 253 255 257 258 260 262 263 264 265 267 268 268
229 230 230 229 228 228 227 226 226 227 227 228 228 228 228 227 226 226 226 225 224 223 223 224 223 222 221 222 222 221 219 217 215 215 215 217 219 221 223 224 224 224 224 226 227 228 230 232 235 238 240 242 243 245 246 249 251 253 255 257 259 261 262 264 265 265 266 268 269
229 230 231 230 229 228 226 225 226 226 227 227 228 228 228 227 227 226 225 224 224 224 224 224 223 222 222 221 221 220 218 216 215 215 216 218 220 222 223 224 224 225 225 226 227 228 230 232 235 237 239 241 242 244 245 247 249 252 255 257 259 261 262 264 265 266 267 268 270
229 230 231 231 230 228 227 226 226 226 226 227 227 227 227 227 226 226 225 224 224 224 224 224 224 223 222 221 220 218 217 216 215 216 217 218 220 222 223 223 224 224 225 227 228 229 231 233 235 237 238 240 241 243 244 247 249 252 254 257 259 261 263 265 267 268 269 270 271
229 230 230 231 230 228 227 226 225 225 226 226 226 227 226 226 226 225 224 224 224 223 223 223 222 222 222 221 220 218 217 216 215 216 217 219 220 221 222 222 223 224 226 227 229 230 232 234 236 237 238 239 241 243 245 247 250 252 255 257 259 261 264 266 269 270 271 271 272
228 229 230 230 229 228 227 226 225 225 225 225 226 226 225 225 224 224 223 223 223 223 222 221 220 220 221 220 219 218 217 216 215 216 217 218 220 221 222 222 224 225 226 228 230 231 233 234 236 237 238 239 241 243 246 248 251 253 256 258 260 262 265 267 269 271 271 272 273
227 228 228 228 228 227 226 225 225 225 225 225 225 225 224 224 223 223 222 222 222 221 221 220 219 219 218 218 217 217 216 216 215 216 216 218 219 221 222 223 224 226 227 229 231 232 234 235 236 237 238 240 242 244 247 250 252 255 257 259 261 264 266 268 270 271 272 273 273
226 227 227 227 227 227 226 225 225 225 224 225 225 224 223 223 222 222 221 221 220 219 219 219 219 217 216 215 215 214 214 214 215 216 217 218 220 221 222 224 225 227 229 230 232 233 234 235 236 237 238 240 243 245 248 251 254 256 258 260 262 264 267 269 270 272 273 274 273
225 226 226 226 227 227 227 226 226 225 225 225 225 224 224 223 222 221 221 221 220 219 218 218 217 216 215 213 213 213 213 213 214 216 218 220 221 222 223 225 227 229 231 232 233 234 235 236 236 237 239 241 244 246 249 252 254 256 258 260 262 264 267 269 270 272 273 274 274
225 226 226 226 227 228 228 227 227 226 226 226 225 225 224 223 222 221 220 220 220 219 218 217 216 215 214 213 213 212 212 213 214 217 219 221 222 223 224 226 228 230 232 234 235 236 236 237 237 238 239 241 244 247 250 252 254 256 258 260 262 264 267 269 271 272 273 274 275
226 226 227 228 229 229 229 229 228 228 227 227 226 225 225 224 223 222 220 219 219 219 218 216 215 214 213 213 213 212 213 213 215 217 219 221 222 222 224 226 229 231 233 234 235 236 237 237 238 238 240 242 245 248 250 252 254 256 258 260 262 264 267 269 271 273 274 275 275
228 228 228 230 230 230 230 230 229 229 228 227 226 226 225 225 223 222 221 220 219 218 217 216 215 214 213 212 212 212 212 214 215 217 219 220 221 223 225 227 229 231 233 235 236 236 236 237 237 239 241 243 245 248 250 252 254 256 258 260 262 264 267 269 271 273 274 275 276
230 230 230 230 230 230 230 230 230 229 228 227 227 226 226 225 224 223 222 221 219 217 216 216 216 215 214 213 213 212 213 214 216 218 219 220 221 223 225 227 229 231 233 234 235 236 236 237 237 239 241 243 246 248 250 252 254 255 257 260 262 265 267 269 270 272 274 276 278
234 232 231 230 230 230 230 229 229 228 227 226 226 225 224 224 224 223 221 219 218 217 217 217 216 216 216 216 215 214 213 214 216 218 219 220 221 223 225 227 229 230 232 233 235 235 235 236 237 238 240 243 245 248 249 251 253 255 257 259 262 264 266 268 270 272 274 277 279
237 234 232 230 229 229 228 228 227 226 225 224 224 223 223 222 222 221 219 218 217 217 217 217 217 217 217 217 217 215 214 214 215 217 218 220 221 222 224 227 228 230 232 234 235 235 235 235 236 238 240 242 245 247 249 251 252 254 256 259 261 264 266 268 270 272 274 276 279
238 236 234 231 230 228 228 227 226 225 224 223 222 221 220 220 219 219 218 217 217 217 217 217 217 217 217 217 216 216 215 215 215 216 217 218 220 222 224 226 228 230 232 234 235 235 235 236 237 239 241 243 245 246 248 249 251 253 255 258 261 264 267 270 271 273 274 277 279
239 237 235 234 232 229 227 225 224 223 222 221 220 219 218 218 217 217 216 216 216 216 217 217 217 217 217 216 215 215 215 215 216 217 217 218 220 221 223 225 227 230 232 234 234 233 233 233 235 238 241 244 245 246 247 249 250 252 255 258 262 265 269 271 272 274 276 278 281
239 237 235 234 232 229 227 226 224 223 221 220 218 217 217 216 216 216 215 215 216 216 217 217 217 216 215 215 214 214 214 215 216 217 218 219 220 222 223 225 227 230 232 234 234 232 229 229 228 230 235 242 246 247 248 250 253 256 259 261 264 266 268 269 270 273 275 278 281
236 235 234 232 230 228 227 226 223 221 220 219 218 217 216 215 215 214 215 215 215 215 215 215 215 214 213 213 213 214 215 215 216 217 219 220 221 223 224 225 227 230 233 235 233 231 228 227 225 225 228 234 240 245 248 250 253 257 259 261 262 263 264 264 267 270 273 276 278
233 232 230 228 226 226 225 223 222 220 219 218 217 216 215 214 214 214 215 215 214 213 212 212 212 211 210 211 212 214 215 216 217 217 218 219 221 223 225 226 228 231 234 235 233 230 228 226 226 226 227 229 233 238 242 244 247 249 252 256 257 257 258 260 263 267 271 273 274
233 230 228 226 225 224 223 221 221 220 219 218 216 215 214 214 214 214 214 214 213 212 211 211 210 209 209 211 212 213 215 216 217 217 218 219 221 223 225 227 229 232 234 234 232 229 227 227 228 229 229 229 230 233 237 240 242 244 247 251 253 255 257 260 264 268 270 272 272
234 230 227 226 224 223 222 221 220 219 218 216 215 214 214 214 214 214 214 213 212 212 212 211 210 210 210 211 212 213 214 216 216 217 218 219 221 223 225 227 229 232 234 234 231 228 226 226 229 229 229 229 230 233 236 240 242 245 248 251 253 256 259 262 265 267 269 270 272
234 230 227 225 224 223 222 221 220 218 217 216 215 214 214 214 214 214 213 212 211 210 210 210 210 210 211 211 212 213 214 215 216 217 218 220 222 224 226 227 230 233 235 234 232 229 227 226 227 228 229 229 230 233 237 240 243 246 249 252 255 258 261 263 264 265 267 271 275
234 231 228 226 225 224 222 221 219 217 216 216 215 215 214 214 214 213 212 211 210 210 209 210 210 211 211 211 212 213 214 215 216 217 219 220 222 224 226 228 230 233 235 235 233 229 227 226 227 228 229 229 231 234 237 240 243 246 250 253 256 258 260 262 264 267 271 275 279
235 232 229 227 225 224 222 220 219 217 216 215 215 215 214 213 212 211 211 211 211 211 212 212 212 212 212 213 212 213 214 215 217 218 219 220 221 223 226 228 230 234 236 236 233 230 228 227 227 228 229 229 232 234 237 240 243 247 250 253 256 259 261 264 267 270 274 277 279
236 232 229 228 225 223 221 219 218 216 215 214 215 215 214 213 212 212 212 212 212 212 213 214 214 214 214 214 214 214 214 215 216 218 219 220 221 223 225 229 231 234 236 236 233 231 228 227 227 227 228 229 231 234 237 240 243 246 250 253 256 259 262 266 269 271 273 274 275
238 233 230 228 225 223 220 218 216 215 214 214 215 214 214 214 214 214 214 213 211 211 212 213 213 213 213 214 214 214 214 214 215 217 218 220 221 222 226 230 233 235 236 235 233 230 227 226 226 227 227 228 230 233 236 239 242 246 250 254 257 260 263 266 269 270 271 272 272
240 236 232 228 225 222 219 217 215 214 214 215 215 215 214 214 214 214 214 212 210 210 211 212 212 212 212 213 213 214 214 215 216 216 218 220 221 223 226 230 233 235 236 235 232 229 226 225 225 225 225 226 228 232 235 238 242 246 250 254 258 260 262 264 267 269 270 272 272
244 238 234 229 226 223 220 217 215 215 215 216 216 216 215 214 214 213 212 210 210 210 211 211 211 212 212 213 213 214 215 216 216 217 218 220 222 224 226 229 233 236 236 235 232 228 225 223 223 223 223 224 227 230 234 237 242 246 250 253 257 259 261 263 264 266 269 271 273
247 242 236 232 228 224 221 218 217 217 217 217 217 216 215 214 214 213 212 211 211 211 211 212 212 213 213 212 212 214 215 216 217 218 219 220 223 225 227 229 233 236 237 236 233 229 225 223 223 222 223 224 227 229 233 236 240 245 248 252 255 259 261 263 263 265 269 273 276
251 245 239 234 230 226 223 221 220 220 219 218 217 215 215 214 214 213 212 211 212 212 213 213 213 213 212 211 212 213 215 216 217 218 219 221 224 226 227 230 234 237 238 237 235 231 226 223 222 222 222 224 226 229 232 235 239 243 246 249 254 257 260 261 263 266 270 276 279
252 246 240 235 231 228 225 223 223 223 221 219 218 217 217 216 215 213 212 211 211 212 213 214 214 213 212 211 212 213 214 216 217 218 220 222 223 225 226 229 233 236 238 238 236 232 227 223 222 221 221 223 225 228 232 235 237 241 245 249 252 255 258 261 264 267 272 277 280